This demonstration page uses our WeatherBlox Daily Observations layout. Learn more.

Left ArrowRight Arrow

Hourly Observations for March 4, 2022

Temp ( °F °C ) Dew Point ( °F °C ) Humidity (%) Winds ( mph kmh ) Pressure ( in mb ) Visibility ( mi km ) Precip ( " mm )
12:02 am 00:02 Cloudy with Light Snow 28 -2.2 27 -2.8 96 96 NW 3 6 30.03 1017 3 5 0.00 0.00
12:33 am 00:33 Cloudy with Light Snow 27 -2.8 26 -3.3 96 96 NNW 3 6 30.05 1018 5 8 0.00 0.00
12:53 am 00:53 Cloudy with Mist and Fog 24 -4.4 23 -5 96 96 NW 13 20 30.01 1016 5 8 0.00 0.00
1:27 am 01:27 Cloudy with Light Snow 23 -5 21 -6.1 92 92 NW 10 17 30.08 1019 3 4 0.00 0.00
1:40 am 01:40 Cloudy with Light Snow 22 -5.6 20 -6.7 92 92 NW 13 20 30.09 1019 2 3 0.00 0.00
1:44 am 01:44 Cloudy with Mist and Fog 22 -5.6 20 -6.7 92 92 NW 13 20 30.10 1019 2 3 0.00 0.00
1:53 am 01:53 Cloudy with Mist and Fog 22 -5.6 19 -7.2 89 89 NW 12 19 30.03 1017 3 4 0.00 0.00
1:59 am 01:59 Cloudy with Mist and Fog 22 -5.6 20 -6.7 92 92 NW 13 20 30.10 1019 3 5 0.00 0.00
2:21 am 02:21 Cloudy with Light Snow 21 -6.1 18 -7.8 88 88 NW 14 22 30.12 1020 3 4 0.01 0.25
2:53 am 02:53 Cloudy with Light Snow 20 -6.7 18 -7.8 92 92 NW 12 19 30.04 1017 3 4 0.01 0.25
2:57 am 02:57 Cloudy with Light Snow 20 -6.7 18 -7.8 92 92 NW 12 19 30.11 1020 3 5 0.00 0.00
3:37 am 03:37 Cloudy with Light Snow 20 -6.7 17 -8.3 89 89 NW 12 19 30.11 1020 3 4 0.00 0.00
3:53 am 03:53 Cloudy with Light Snow 20 -6.7 18 -7.8 92 92 NW 13 20 30.04 1017 3 5 0.00 0.00
4:03 am 04:03 Cloudy with Light Snow 20 -6.7 18 -7.8 92 92 NW 12 19 30.12 1020 3 4 0.00 0.00
4:18 am 04:18 Cloudy with Light Snow 20 -6.7 18 -7.8 92 92 W 7 11 30.12 1020 4 6 0.00 0.00
4:43 am 04:43 Cloudy with Light Snow 20 -6.7 17 -8.3 89 89 WNW 9 15 30.13 1020 3 4 0.00 0.00
4:53 am 04:53 Cloudy with Light Snow 20 -6.7 17 -8.3 89 89 WNW 8 13 30.06 1018 3 5 0.00 0.00
5:53 am 05:53 Cloudy 19 -7.2 17 -8.3 92 92 W 6 9 30.07 1018 10 16 0.01 0.25
6:37 am 06:37 Cloudy 19 -7.2 16 -8.9 88 88 W 6 9 30.15 1021 10 16 0.00 0.00
6:53 am 06:53 Cloudy 19 -7.2 16 -8.9 88 88 W 8 13 30.08 1019 10 16 0.00 0.00
7:53 am 07:53 Cloudy with Light Snow 20 -6.7 17 -8.3 89 89 W 7 11 30.09 1019 5 8 0.00 0.00
8:01 am 08:01 Cloudy with Light Snow 20 -6.7 17 -8.3 89 89 W 9 15 30.16 1021 5 8 0.00 0.00
8:53 am 08:53 Cloudy 20 -6.7 16 -8.9 85 85 WNW 12 19 30.10 1019 10 16 0.00 0.00
9:15 am 09:15 Cloudy 20 -6.7 16 -8.9 85 85 WNW 12 19 30.18 1022 10 16 0.00 0.00
9:53 am 09:53 Cloudy 20 -6.7 15 -9.4 81 81 WNW 13 20 30.12 1020 10 16 0.00 0.00
10:00 am 10:00 Cloudy 20 -6.7 15 -9.4 81 81 WNW 12 19 30.19 1022 10 16 0.00 0.00
10:53 am 10:53 Mostly Cloudy 18 -7.8 12 -11.1 77 77 WNW 14 22 30.12 1020 10 16 0.00 0.00
11:53 am 11:53 Sunny 21 -6.1 15 -9.4 78 78 W 10 17 30.12 1020 10 16 0.00 0.00
12:53 pm 12:53 Mostly Cloudy 21 -6.1 15 -9.4 78 78 NW 15 24 30.12 1020 10 16 0.00 0.00
1:53 pm 13:53 Cloudy 20 -6.7 14 -10 78 78 WNW 18 30 30.12 1020 10 16 0.00 0.00
2:53 pm 14:53 Mostly Cloudy 20 -6.7 12 -11.1 71 71 WNW 18 30 30.14 1021 10 16 0.00 0.00
3:01 pm 15:01 Partly Cloudy 21 -6.1 14 -10 74 74 WNW 18 30 30.19 1022 10 16 0.00 0.00
3:53 pm 15:53 Sunny 20 -6.7 13 -10.6 74 74 WNW 18 30 30.14 1021 10 16 0.00 0.00
4:24 pm 16:24 Mostly Cloudy 19 -7 12 -11 73 73 WNW 16 26 30.21 1023 10 16 0.00 0.00
4:34 pm 16:34 Partly Cloudy 19 -7.2 12 -11.1 74 74 WNW 17 28 30.22 1023 10 16 0.00 0.00
4:53 pm 16:53 Mostly Sunny 20 -6.7 12 -11.1 71 71 WNW 17 28 30.16 1021 10 16 0.00 0.00
5:25 pm 17:25 Mostly Cloudy 18 -7.8 12 -11.1 77 77 WNW 14 22 30.23 1024 10 16 0.00 0.00
5:53 pm 17:53 Mostly Cloudy 17 -8.3 12 -11.1 80 80 W 9 15 30.18 1022 10 16 0.00 0.00
6:51 pm 18:51 Partly Cloudy 14 -10 9 -13 79 79 WNW 13 20 30.29 1026 10 16 0.00 0.00
6:53 pm 18:53 Mostly Clear 14 -10 8 -13.3 77 77 WNW 13 20 30.21 1023 10 16 0.00 0.00
7:25 pm 19:25 Mostly Cloudy 13 -10.6 8 -13.3 81 81 W 14 22 30.30 1026 10 16 0.00 0.00
7:53 pm 19:53 Mostly Cloudy 12 -11.1 7 -13.9 80 80 WNW 13 20 30.22 1023 10 16 0.00 0.00
8:02 pm 20:02 Partly Cloudy 12 -11.1 7 -13.9 80 80 W 9 15 30.31 1027 10 16 0.00 0.00
8:33 pm 20:33 Mostly Cloudy 13 -10.6 8 -13.3 81 81 W 13 20 30.32 1027 10 16 0.00 0.00
8:53 pm 20:53 Mostly Cloudy 12 -11.1 7 -13.9 80 80 WNW 13 20 30.24 1024 10 16 0.00 0.00
9:10 pm 21:10 Partly Cloudy 11 -11.7 6 -14.4 81 81 WNW 9 15 30.34 1027 10 16 0.00 0.00
9:18 pm 21:18 Mostly Cloudy 11 -11.7 7 -13.9 84 84 W 7 11 30.35 1028 10 16 0.00 0.00
9:53 pm 21:53 Mostly Cloudy 10 -12.2 5 -15 80 80 W 10 17 30.26 1025 10 16 0.00 0.00
10:03 pm 22:03 Partly Cloudy 9 -12.8 5 -15 84 84 W 8 13 30.37 1029 10 16 0.00 0.00
10:48 pm 22:48 Mostly Cloudy 10 -12 5 -15 79 79 W 10 17 30.37 1028 10 16 0.00 0.00
10:53 pm 22:53 Mostly Cloudy 10 -12.2 5 -15 80 80 W 9 15 30.27 1025 10 16 0.00 0.00
11:53 pm 23:53 Cloudy 9 -12.8 5 -15 84 84 WSW 7 11 30.27 1025 10 16 0.00 0.00

Powered by AerisWeather